Volver al catálogo

STARLINK-5365

ActivoComunicacionesVLEO
NORAD 55498·PAYLOAD·🇺🇸 United States

Lanzado Feb 2, 2023 desde Cape Canaveral Space Force Station

Loading…

Próximos Pases (próximas 24 horas)

TLE

ActualizadoSource: CelesTrak SupGP

Época: Sep 15, 2026, 02:44 UTC

1 55498C 23015BB  26258.11437500  .00009647  00000+0  34947-3 0  2589
2 55498  43.0041 350.2353 0002357 271.4091  29.4683 15.27567960    18

Sigue STARLINK-5365 en tiempo real con AllMySat

Download on the App Store